STARLINK-1723, 46333

Orbit data source: Space-Track

STARLINK-1723, 46333 is a payload satellite owned by SpaceX/Seattle (US) in LEO that was launched on Thu, 03 Sep 2020 UTC via an FALCON 9 launch vehicle from the Air Force Eastern Test Range (AFETR). Payload-class satellites include a variety of spacecraft equipped with specific instruments for various scientific and technological missions. These include communications satellites like Starlink; space stations such as the ISS; scientific satellites like the Hubble; Earth observation satellites from companies like Planet Labs, Umbra, and HawkEye 360; GPS; miniature CubeSats for education and research; and military/defense satellites.

Loading next visibility...
Identifier
46333, 2020-062J
Orbit
LEO
Country
Flag of USUS
Related business
Manufacturer
SpaceX/Seattle
Mission
Partially operational Commercial Communications
Bus & Motor
STARLINK, Unknown motor
Mass
260 kg wet, ~248 kg dry
Launch date (UTC)
2020-09-03 (5 years ago)
Launch vehicle
FALCON 9
Launch site
Air Force Eastern Test Range (AFETR)
Object type
Payload
Rocket body
Debris
Shape & HBR
Box + 1 Pan, 10.1 m
Radar Cross Section
13.562 m², Large (>1 m²)

Expand to show TLE details & history
Last TLE update: 10 hours ago

TLE from 10 hours ago
0 STARLINK-1723
1 46333U 20062J   25340.87885715  .00050296  00000-0  98434-3 0  9995
2 46333  53.0516  63.0063 0007573 338.6061  21.4628 15.46913636290466
Epoch: 2025-12-06T21:05Z
TLE epoch observation values (Epoch: 2025-12-06T21:05:33.257Z)
Latitude
-0.00004°
Longitude
30.71743°
Altitude
421.861 km
Speed
7.662 km/s
True Right ascension
04h 12m 01s
True Declination
0° 00' 00"
Sunlit
Object was in full shadow at epoch
Visualization orbit readout
Latitude
Unknown
Longitude
Unknown
Altitude
Unknown
Speed
Unknown
Apparent Right ascension
Unknown
Apparent Declination
Unknown
Sunlit
N/A
Visualization observer readout
Local Sidereal Time
05:24:11
Azimuth
Unknown
Elevation
Unknown
Doppler factor
Unknown
Orbital elements
Apogee altitude
431.19 km
Perigee altitude
420.884 km
Semi-major axis
6,804.174 km
Eccentricity
0.00076
Inclination
53.0516°
RAAN
63.0063°
Arg. of periapsis
338.6061°
True anomaly
21.49458°
Mean anomaly
21.4628°
Eccentric anomaly
21.47869°
Mean motion
3.86705 °/min
Orbital period
93.09 mins
BSTAR
0.00098434
Loading maneuver chart data...
Computing Atmospheric mass density...

Documentation

Showing up to 5 results
|